Wind_Speed
25 18 27 31 35 33 36 37 38 36 31 31 29 29 31 18 6 11 11 13 15 15 16 18 14 15 12 9 7 6 4 3 3 6 8 8 15 12 13 14 15 15 15
27 24 25 30 36 35 33 36 36 32 30 26 24 26 17 4 7 14 16 17 19 19 19 17 15 15 13 10 8 7 6 6 4 5 5 10 14 13 15 17 17 17 18
25 27 27 34 31 36 34 31 31 29 26 22 19 12 5 2 12 9 15 18 21 20 21 19 16 13 13 11 11 12 9 7 4 5 4 12 19 17 18 20 17 22 19
21 25 29 32 42 40 39 37 35 29 25 16 8 6 4 6 5 9 10 17 21 22 27 23 21 17 13 12 16 9 7 8 8 7 8 13 17 20 19 18 20 24 20
16 20 23 27 32 37 39 38 33 29 18 11 6 4 6 5 2 7 6 14 15 18 25 26 23 22 14 14 17 17 12 9 9 12 11 14 16 21 20 19 26 26 21
11 13 14 14 17 12 14 18 22 20 18 14 7 7 6 3 2 3 7 10 14 19 24 23 26 20 19 16 18 20 15 8 11 12 15 16 16 21 23 20 27 27 24
13 9 9 6 7 6 7 10 14 16 14 11 10 8 8 3 3 5 7 10 14 17 20 23 22 25 23 21 22 20 19 10 11 13 14 14 17 18 18 19 25 27 23
17 9 6 8 2 4 7 9 11 9 7 10 10 10 6 4 4 6 9 13 13 20 20 20 24 25 21 23 22 22 18 15 9 13 13 15 18 17 16 18 25 26 18
14 12 3 4 3 8 8 7 5 4 11 14 11 11 6 6 3 3 3 6 14 21 16 21 25 27 24 22 27 25 24 16 15 16 10 13 14 15 12 15 22 24 16
10 7 5 3 2 6 3 1 4 14 18 13 13 10 7 3 2 2 4 9 15 18 21 23 26 29 28 26 24 29 23 20 15 13 10 13 15 13 9 11 18 21 15
1 4 8 7 5 9 10 10 12 19 18 14 12 7 5 4 1 4 6 10 15 18 19 21 28 31 30 27 26 30 24 17 12 13 10 11 16 12 8 8 13 19 14
27 24 21 19 19 18 18 22 22 20 17 14 10 8 5 6 2 2 3 7 13 13 18 21 25 29 32 28 29 32 33 19 14 11 7 8 13 10 9 10 9 14 13
25 24 26 30 32 31 28 25 23 21 18 14 8 6 7 7 6 5 2 6 13 16 16 21 23 26 30 27 26 28 34 24 14 9 9 9 8 8 9 8 8 10 14
28 25 25 27 26 26 24 19 20 18 13 11 9 8 7 8 7 6 5 10 15 13 15 20 24 26 30 27 25 26 30 28 16 12 10 9 8 10 8 8 8 7 10
26 24 20 20 20 19 17 15 14 12 11 9 8 8 8 6 5 6 9 14 16 15 17 20 24 25 28 24 27 27 29 26 19 14 12 12 11 7 7 8 6 8 9
25 23 22 15 14 15 13 14 12 12 10 9 12 10 7 6 7 8 11 13 18 19 20 19 24 23 25 24 25 27 29 27 23 17 14 13 12 7 7 7 4 7 8
16 15 18 16 11 11 12 13 13 11 13 11 10 11 9 10 10 12 13 16 20 21 24 23 24 23 23 22 24 25 27 25 23 18 17 17 16 13 7 7 5 7 8
19 16 13 13 12 13 13 11 12 11 11 10 10 9 9 10 12 14 19 20 20 22 28 27 27 21 21 20 21 21 24 26 21 23 21 20 22 20 13 7 8 9 8
11 10 11 10 10 8 8 7 5 5 3 7 10 8 11 12 12 11 12 15 19 19 23 25 25 24 20 18 16 20 20 23 23 20 23 18 20 23 22 14 10 10 12
13 6 6 7 6 5 7 5 3 4 7 0 8 14 15 14 18 17 19 19 21 21 20 22 24 24 15 13 15 15 19 19 20 21 21 20 19 19 20 20 16 11 10
10 10 11 12 13 11 8 4 3 2 2 3 2 6 12 12 11 15 20 19 19 18 18 17 20 21 16 11 10 12 18 19 19 19 18 17 17 17 17 17 16 15 12
7 9 10 11 9 7 11 15 7 3 4 1 1 7 8 10 9 17 20 20 25 21 18 13 17 23 18 7 8 5 8 11 16 16 17 15 13 12 14 15 13 13 13
6 12 12 15 13 10 6 11 15 17 7 5 8 9 5 8 15 12 11 19 17 16 14 17 21 23 23 16 8 8 10 6 10 12 12 12 13 11 12 10 11 9 9
7 14 15 17 18 14 11 7 8 13 16 18 11 20 20 19 19 18 16 21 24 17 10 26 21 20 17 20 19 18 16 16 9 9 8 7 9 11 11 10 7 6 3
13 18 15 15 19 19 17 13 13 10 12 19 14 13 13 22 30 32 35 33 33 32 32 31 27 29 24 21 17 22 25 27 24 13 11 12 6 4 12 11 10 6 3
14 21 19 13 19 24 20 16 22 17 20 20 13 13 12 15 17 21 22 26 31 21 24 24 33 33 31 30 32 25 26 25 25 26 18 17 14 11 7 10 10 7 5
Wind_Direction
208 227 242 244 241 247 250 255 262 272 284 296 301 312 315 312 331 19 17 16 5 3 4 359 23 20 22 58 81 86 71 45 10 34 6 0 349 331 335 330 320 320 309
223 236 229 246 246 249 258 265 267 273 286 295 311 324 314 312 61 47 37 29 28 37 14 6 23 30 24 30 42 37 26 23 20 352 356 8 0 359 349 351 345 331 317
223 209 230 227 239 244 256 262 269 276 290 309 330 339 325 179 61 42 40 47 42 31 22 11 21 29 34 35 19 16 21 7 345 296 297 352 358 358 356 355 343 340 323
219 227 239 242 240 243 247 255 265 279 295 307 324 310 254 215 40 46 56 46 47 34 31 25 30 24 32 52 35 25 35 20 32 7 317 331 358 1 357 353 344 336 327
232 232 238 248 245 249 253 262 269 277 285 278 293 257 225 196 22 56 42 33 32 40 35 33 30 25 26 28 15 19 8 357 356 9 347 342 353 353 349 356 354 338 332
207 213 223 234 237 248 257 261 261 263 266 258 248 230 205 129 104 54 24 34 28 40 33 30 30 33 33 13 10 356 344 358 357 330 335 345 339 337 340 354 340 337 338
175 180 200 187 205 244 275 274 269 260 248 234 202 202 177 134 89 54 50 28 40 26 17 24 23 25 27 22 12 13 6 347 5 349 346 8 355 348 347 1 343 342 342
181 190 231 205 236 300 297 272 274 239 201 180 175 180 144 92 110 92 76 54 27 15 14 14 15 16 9 8 14 12 352 339 342 348 353 356 352 352 345 5 348 341 343
197 222 258 241 313 308 297 296 232 172 148 156 164 148 128 86 82 79 69 29 14 8 12 12 19 16 14 358 356 358 350 338 334 328 349 349 343 352 356 15 351 341 340
232 239 248 218 259 293 305 133 140 138 148 153 147 142 125 93 128 73 19 7 7 11 0 8 18 13 16 4 3 359 354 349 331 352 340 349 337 349 3 23 356 347 350
121 147 129 121 96 82 84 107 122 134 148 148 134 127 90 53 350 310 347 353 352 348 357 4 8 8 8 12 9 6 3 353 352 347 330 356 349 359 4 22 2 354 9
88 94 99 95 91 94 100 105 115 124 130 131 123 105 83 49 16 265 286 338 350 342 341 0 3 2 3 6 6 10 9 6 6 2 2 2 0 1 18 32 26 3 29
81 89 98 100 94 94 99 104 108 115 119 120 118 113 85 51 46 40 337 337 349 354 359 1 2 3 5 3 9 8 6 9 17 15 9 5 0 355 352 9 35 22 41
78 86 99 101 97 103 100 104 110 112 118 109 84 61 58 47 39 29 9 343 349 1 1 2 9 10 11 8 11 12 7 9 10 14 5 10 358 357 356 9 37 45 65
78 77 87 89 96 92 97 104 104 104 96 86 64 52 54 38 23 14 7 2 2 9 8 4 6 11 10 10 13 14 13 12 14 15 12 0 6 352 5 25 60 64 62
79 76 84 88 77 84 74 80 102 109 104 89 74 56 48 20 30 22 8 12 6 358 353 350 357 8 14 13 13 17 16 18 19 24 25 19 19 34 42 31 47 88 74
79 75 80 88 90 83 88 89 107 112 109 97 69 58 52 59 56 35 13 359 359 3 2 2 356 3 11 16 18 17 20 23 23 30 37 38 39 41 51 59 82 91 104
74 76 82 91 101 100 101 97 94 92 98 74 44 18 13 7 11 7 1 357 358 359 5 10 9 5 14 15 25 21 24 34 37 43 40 44 46 51 61 75 84 80 96
61 57 69 70 74 83 88 81 85 85 86 352 355 344 354 359 10 346 348 344 345 1 1 6 10 6 7 18 18 17 26 38 39 33 32 41 49 54 57 72 85 92 100
53 69 62 60 53 85 77 83 106 117 96 110 309 341 333 334 337 332 349 343 343 355 356 350 4 8 9 19 16 28 31 36 42 40 38 43 47 49 53 60 69 93 106
27 24 18 7 359 15 6 26 86 133 102 89 149 239 299 336 312 327 335 331 340 349 352 349 352 359 2 3 6 24 35 35 38 37 37 41 43 45 46 54 60 68 83
331 347 332 331 343 356 10 356 340 309 316 45 178 297 320 315 242 309 324 320 325 343 334 337 335 337 342 342 32 48 37 23 31 33 36 35 32 36 35 38 50 62 72
267 321 319 317 306 320 10 351 350 334 296 298 221 235 235 239 274 293 286 298 304 310 318 327 325 319 332 321 288 283 303 358 347 9 21 16 27 21 17 27 31 53 75
285 319 296 296 288 288 290 326 331 321 315 302 264 223 239 235 242 252 258 268 280 285 244 285 298 299 305 307 297 279 284 304 324 348 343 357 357 7 17 1 9 22 68
283 294 309 287 271 275 258 308 315 309 313 310 291 277 281 260 258 262 265 266 269 279 283 288 289 290 291 287 282 277 282 284 296 312 318 311 325 324 325 344 339 334 322
303 284 283 279 282 269 257 277 275 276 278 270 258 290 307 310 327 307 277 277 275 294 301 289 317 309 283 277 280 268 269 279 284 292 290 292 284 279 265 295 319 313 290
Height
10971 10970 10968 10965 10964 10962 10963 10964 10963 10964 10966 10965 10963 10961 10959 10958 10958 10958 10957 10953 10949 10945 10942 10938 10934 10930 10928 10928 10927 10925 10925 10924 10923 10923 10923 10922 10919 10917 10915 10913 10910 10907 10905
10964 10965 10966 10962 10960 10960 10961 10960 10961 10962 10964 10963 10961 10959 10958 10957 10958 10957 10956 10952 10947 10944 10942 10937 10933 10930 10929 10928 10928 10926 10924 10923 10922 10922 10922 10920 10918 10915 10912 10909 10906 10903 10901
10958 10960 10958 10957 10957 10957 10958 10958 10958 10961 10960 10959 10958 10957 10957 10957 10957 10956 10955 10951 10948 10946 10941 10936 10933 10931 10930 10929 10927 10925 10922 10921 10920 10918 10918 10917 10915 10912 10908 10905 10902 10900 10896
10953 10954 10954 10955 10955 10955 10955 10955 10956 10957 10956 10958 10956 10958 10957 10957 10957 10955 10955 10951 10948 10946 10940 10936 10934 10932 10930 10928 10927 10925 10923 10921 10919 10918 10916 10914 10912 10909 10906 10903 10900 10896 10892
10949 10950 10950 10950 10952 10952 10952 10953 10952 10953 10954 10955 10957 10957 10957 10956 10956 10955 10955 10951 10948 10946 10941 10937 10934 10933 10931 10929 10927 10925 10922 10920 10918 10916 10914 10912 10910 10908 10904 10901 10896 10893 10888
10945 10946 10947 10947 10947 10947 10947 10948 10947 10949 10951 10953 10955 10956 10956 10955 10955 10955 10954 10951 10949 10947 10943 10939 10936 10934 10932 10929 10927 10924 10921 10918 10916 10914 10912 10911 10908 10906 10902 10896 10894 10890 10884
10941 10942 10943 10942 10943 10943 10943 10944 10944 10945 10947 10950 10953 10954 10955 10955 10954 10954 10953 10950 10949 10948 10945 10941 10938 10935 10932 10928 10926 10923 10920 10917 10914 10911 10910 10908 10906 10903 10899 10894 10893 10887 10881
10939 10939 10940 10940 10940 10940 10940 10941 10941 10942 10945 10949 10952 10953 10954 10954 10953 10953 10953 10951 10949 10948 10945 10942 10939 10936 10932 10928 10924 10922 10919 10916 10913 10911 10908 10907 10905 10901 10898 10894 10892 10887 10881
10936 10938 10939 10939 10939 10939 10939 10938 10939 10941 10945 10949 10951 10953 10954 10954 10954 10954 10953 10952 10950 10947 10945 10942 10939 10937 10933 10928 10924 10920 10915 10912 10911 10909 10907 10906 10904 10901 10898 10894 10894 10888 10883
10934 10934 10935 10936 10937 10937 10937 10937 10938 10941 10945 10948 10951 10953 10955 10956 10954 10951 10952 10951 10950 10948 10944 10942 10940 10937 10933 10929 10924 10919 10913 10910 10908 10907 10906 10904 10903 10900 10898 10895 10895 10890 10884
10930 10931 10934 10936 10937 10937 10938 10939 10940 10942 10946 10949 10951 10954 10955 10956 10955 10954 10953 10951 10950 10949 10945 10942 10938 10935 10932 10929 10925 10919 10913 10909 10907 10905 10904 10902 10901 10899 10898 10896 10895 10891 10886
10932 10933 10936 10938 10938 10939 10940 10941 10943 10945 10948 10951 10954 10955 10956 10955 10955 10955 10955 10954 10952 10949 10946 10943 10939 10936 10932 10928 10925 10920 10915 10910 10906 10904 10903 10901 10900 10899 10897 10896 10895 10892 10888
10939 10940 10942 10942 10941 10942 10944 10946 10947 10949 10952 10954 10955 10955 10955 10955 10955 10955 10955 10954 10952 10948 10946 10943 10940 10936 10933 10929 10926 10922 10917 10912 10908 10905 10903 10902 10901 10899 10898 10897 10895 10893 10890
10946 10947 10946 10945 10946 10946 10947 10948 10950 10952 10954 10955 10956 10956 10955 10955 10956 10956 10955 10954 10951 10948 10946 10943 10940 10937 10934 10929 10926 10922 10918 10913 10908 10905 10904 10902 10901 10900 10898 10897 10895 10895 10892
10950 10949 10950 10950 10950 10950 10951 10951 10952 10953 10954 10955 10957 10956 10955 10956 10956 10956 10954 10953 10951 10948 10946 10943 10940 10937 10934 10931 10928 10924 10919 10914 10910 10907 10904 10903 10901 10899 10897 10896 10896 10896 10895
10953 10953 10953 10953 10954 10954 10954 10953 10954 10954 10955 10957 10957 10957 10956 10956 10955 10955 10954 10953 10951 10948 10946 10943 10940 10937 10935 10933 10929 10925 10921 10916 10912 10909 10906 10903 10902 10899 10897 10897 10897 10896 10897
10954 10955 10955 10955 10955 10954 10954 10954 10953 10955 10955 10958 10958 10958 10958 10957 10956 10955 10953 10951 10949 10948 10946 10943 10940 10937 10935 10933 10930 10927 10923 10919 10914 10911 10908 10905 10902 10899 10898 10898 10899 10899 10899
10960 10958 10957 10957 10957 10956 10954 10954 10954 10955 10956 10957 10958 10958 10958 10957 10955 10954 10952 10950 10948 10946 10944 10943 10941 10939 10936 10935 10932 10930 10926 10921 10917 10915 10911 10908 10905 10902 10901 10900 10899 10901 10902
10963 10962 10961 10959 10958 10957 10955 10956 10956 10955 10954 10955 10956 10955 10954 10953 10952 10952 10951 10950 10948 10945 10943 10943 10941 10939 10938 10936 10934 10932 10929 10924 10920 10917 10915 10912 10909 10906 10905 10903 10902 10903 10904
10963 10962 10962 10962 10960 10957 10955 10955 10955 10955 10954 10954 10954 10954 10953 10952 10952 10952 10951 10949 10947 10945 10943 10942 10941 10940 10939 10938 10936 10934 10930 10926 10922 10919 10917 10916 10914 10912 10910 10908 10907 10906 10906
10962 10963 10961 10961 10959 10957 10956 10955 10955 10955 10955 10953 10952 10954 10952 10952 10949 10952 10948 10946 10945 10944 10942 10941 10941 10940 10939 10938 10937 10935 10932 10928 10924 10921 10918 10917 10917 10916 10914 10911 10909 10908 10907
10960 10960 10960 10958 10957 10956 10954 10953 10953 10954 10954 10953 10952 10952 10949 10950 10949 10951 10948 10945 10942 10941 10941 10940 10940 10939 10938 10939 10937 10934 10932 10929 10926 10923 10921 10919 10918 10917 10916 10915 10912 10910 10909
10959 10958 10956 10955 10954 10955 10952 10949 10949 10951 10950 10951 10951 10952 10951 10951 10949 10948 10948 10946 10945 10943 10939 10936 10938 10937 10938 10938 10937 10934 10932 10928 10926 10924 10922 10921 10919 10918 10917 10916 10915 10913 10912
10955 10954 10953 10952 10951 10950 10948 10945 10942 10944 10946 10945 10950 10949 10950 10949 10948 10947 10946 10946 10942 10943 10942 10938 10936 10934 10935 10935 10934 10933 10930 10928 10925 10924 10922 10921 10919 10918 10917 10917 10917 10915 10913
10950 10950 10949 10947 10945 10945 10945 10945 10943 10940 10941 10943 10942 10943 10944 10945 10944 10942 10940 10941 10941 10939 10938 10937 10934 10933 10931 10928 10928 10928 10926 10925 10923 10922 10921 10921 10919 10917 10917 10916 10915 10915 10914
10946 10945 10944 10943 10942 10942 10941 10939 10937 10937 10937 10938 10938 10938 10938 10936 10935 10935 10936 10936 10934 10935 10934 10932 10932 10929 10926 10923 10922 10922 10921 10920 10919 10918 10917 10917 10916 10915 10913 10913 10913 10913 10912